Weather History for Najran, Saudi Arabia

Change the Weather History Date:

Thursday, February 21, 2013

  Actual Average Record
Temperature  
Mean Temperature 71 °F -  
Max Temperature 86 °F 84 °F 96 °F (2001)
Min Temperature 56 °F 58 °F 46 °F (2014)
Cooling Degree Days 6    
Growing Degree Days 21 (Base 50)    
Moisture  
Dew Point 33 °F    
Average Humidity 22    
Maximum Humidity 36    
Minimum Humidity 10    
Precipitation  
Precipitation 0.00 in - - ()
Sea Level Pressure  
Sea Level Pressure 30.11 in    
Wind  
Wind Speed 3 mph ()    
Max Wind Speed 12 mph    
Max Gust Speed -    
Visibility 4.9 miles    
Events      
Averages and records for this station are not official NWS values.
T = Trace of Precipitation, MM = Missing Value Source: Averaged Metar Reports

Daily Weather History Graph

Daily Weather History Graph

Search for Another Location

Airport:

Trip Planner

Search our weather history database for the weather conditions in past years. The results will help you decide how hot, cold, wet, or windy it might be!

Date:

Astronomy

Feb. 21, 2013 Rise Set
Actual Time 6:25 AM AST 6:06 PM AST
Civil Twilight 6:03 AM AST 6:28 PM AST
Nautical Twilight 5:38 AM AST 6:53 PM AST
Astronomical Twilight 5:13 AM AST 7:18 PM AST
Moon 2:23 PM AST (2/21) 2:50 AM AST (2/21)
Length of Visible Light 12h 24m
Length of Day
11h 40m
Waxing Gibbous, 81% of the Moon is Illuminated
Feb 21
Waxing Gibbous
Feb 25
Full
Mar 5
Last Quarter
Mar 11
New
Mar 19
First Quarter

Hourly Weather History & Observations

Time (AST) Temp. Dew Point Humidity Pressure Visibility Wind Dir Wind Speed Gust Speed Precip Events Conditions
12:00 AM 68 °F 30 °F 14%  in 6 mi NNE 3.5 mph - -  
12:00 AM 68.0 °F 30.2 °F 24% 30.12 in - NNE 3.5 mph - N/A   Clear
1:00 AM 66.2 °F 32.0 °F 28% 30.12 in - Calm Calm - N/A   Clear
2:00 AM 62.6 °F 32.0 °F 32% 30.09 in - SW 3.5 mph - N/A   Clear
3:00 AM 62 °F 30 °F 19%  in 6 mi Calm Calm - -  
3:00 AM 62.6 °F 30.2 °F 30% 30.09 in - Calm Calm - N/A   Clear
4:00 AM 59.0 °F 28.4 °F 31% 30.09 in - SW 3.5 mph - N/A   Clear
5:00 AM 59.0 °F 28.4 °F 31% 30.09 in - SW 2.3 mph - N/A   Clear
6:00 AM 59.0 °F 30.2 °F 34% 30.12 in - Calm Calm - N/A   Clear
7:00 AM 59.0 °F 32.0 °F 36% 30.15 in 4.3 mi Calm Calm - N/A   Clear
8:00 AM 66.2 °F 32.0 °F 28% 30.15 in 3.7 mi Calm Calm - N/A   Clear
9:00 AM 70 °F 36 °F 18%  in 4 mi ENE 4.6 mph - -   Widespread Dust
9:00 AM 69.8 °F 35.6 °F 28% 30.18 in 4.3 mi ENE 4.6 mph - N/A   Clear
10:00 AM 73.4 °F 35.6 °F 25% 30.18 in - East 4.6 mph - N/A   Clear
11:00 AM 75.2 °F 35.6 °F 24% 30.15 in 4.3 mi East 4.6 mph - N/A   Clear
12:00 PM 79 °F 34 °F 11%  in 4 mi Calm Calm - -   Widespread Dust
12:00 PM 78.8 °F 33.8 °F 20% 30.12 in 4.3 mi Calm Calm - N/A   Clear
1:00 PM 80.6 °F 33.8 °F 18% 30.09 in 5.0 mi ESE 4.6 mph - N/A   Clear
2:00 PM 82.4 °F 35.6 °F 19% 30.06 in 5.0 mi East 4.6 mph - N/A   Clear
3:00 PM 84 °F 36 °F 10%  in 6 mi East 6.9 mph - -  
3:00 PM 84.2 °F 35.6 °F 18% 30.04 in - East 6.9 mph - N/A   Clear
4:00 PM 84.2 °F 35.6 °F 18% 30.01 in - East 9.2 mph - N/A   Clear
5:00 PM 82.4 °F 33.8 °F 17% 30.04 in - ENE 4.6 mph - N/A   Clear
6:00 PM 78 °F 32 °F 10%  in 6 mi East 11.5 mph - -  
6:00 PM 78.8 °F 32.0 °F 18% 30.04 in - East 11.5 mph - N/A   Clear
7:00 PM 75.2 °F 30.2 °F 19% 30.06 in - East 4.6 mph - N/A   Clear
8:00 PM 71.6 °F 32.0 °F 23% 30.12 in - Calm Calm - N/A   Clear
9:00 PM 70 °F 32 °F 14%  in 6 mi Calm Calm - -  
9:00 PM 69.8 °F 32.0 °F 25% 30.12 in - Calm Calm - N/A   Clear
10:00 PM 68.0 °F 32.0 °F 26% 30.15 in - Calm Calm - N/A   Clear
11:00 PM 66.2 °F 32.0 °F 28% 30.15 in - Calm Calm - N/A   Clear